[[{"header":{"parameterUnit":"m.s-1","parameterCategory":2,"la1":30.2991,"la2":30.254,"lo1":-89.0895,"lo2":-89.0444,"dy":0.0017,"dx":0.0017,"nx":28,"ny":28,"refTime":"2025-07-23T21:00:00:Z","depth":"0","parameterNumber":2,"parameterNumberName":"U-component_of_CURRENTS"},"data":[0,0,0,0,0,0,0,0,0,0,0,0,0,0,0,0,0,0,0,0,0,0,0,0,0,0,0,0,0,0,0,0,0,0,0,0,0,0,0,0,0,0,0,0,0,0,0,0,0,0,0,0,0,0,0,0,0,0,0.2181,0.2181,0,0.2209,0.2209,0.2209,0.2181,0.218,0.2179,0.2178,0.2153,0.2153,0.2153,0,0,0,0,0,0,0,0,0,0,0,0,0,0.214,0.214,0.2181,0.2181,0.2182,0.2209,0.2209,0.2209,0.2181,0.218,0.2179,0.2178,0.2153,0.2153,0.2153,0,0,0,0,0,0,0,0,0,0,0,0,0,0.2159,0.214,0.2181,0.2173,0.2173,0.2209,0.2209,0.2209,0.2181,0.218,0.2179,0.2177,0.2153,0.2153,0.2153,0.2181,0,0,0.2154,0.2154,0,0,0,0,0,0,0,0,0.2158,0.216,0.2174,0.2174,0.2173,0.2192,0.2186,0.2198,0.2182,0.2175,0.2178,0.2177,0.2164,0.2163,0.2168,0.218,0.2179,0.2154,0.2154,0.2154,0.2154,0,0,0,0,0,0,0,0.2157,0.2159,0.2189,0.2174,0.2174,0.2181,0.2182,0.2188,0.2174,0.2176,0.2174,0.2182,0.2163,0.2168,0.2167,0.2178,0.2154,0.2154,0.2154,0.2154,0.2203,0.2204,0,0,0,0,0,0,0.2158,0.2158,0.2189,0.219,0.2165,0.2183,0.2184,0.2186,0.2175,0.2173,0.2183,0.2181,0.2169,0.2167,0.2166,0.2195,0.2154,0.2154,0.2154,0.2202,0.2203,0.2204,0,0,0,0,0,0,0.2157,0.216,0.2187,0.2177,0.2181,0.2185,0.2188,0.2187,0.2196,0.2181,0.2178,0.2193,0.2167,0.2166,0.2178,0.2194,0.2154,0.2155,0.22,0.2202,0.2204,0.2255,0,0,0,0,0,0,0.2155,0.216,0.2164,0.2177,0.2182,0.222,0.2189,0.2188,0.2203,0.22,0.2189,0.2185,0.2166,0.2178,0.2179,0.2194,0.2155,0.2199,0.2201,0.2203,0.2252,0.2258,0.2264,0,0,0,0,0,0.2154,0.2171,0.2164,0.2168,0.2187,0.2222,0.2225,0.2221,0.2205,0.2221,0.2209,0.2185,0.2192,0.218,0.218,0.2195,0.2198,0.22,0.2203,0.2249,0.2257,0.2264,0,0,0,0,0,0,0.2158,0.2171,0.2163,0.2183,0.2204,0.2218,0.2236,0.2232,0.2236,0.2231,0.2205,0.2202,0.2219,0.2205,0.2193,0.2216,0.219,0.2192,0.2225,0.2232,0.2238,0.226,0.2155,0,0,0,0,0,0.2161,0.2177,0.2191,0.221,0.2222,0.223,0.2243,0.2244,0.225,0.2251,0.2241,0.2232,0.2232,0.223,0.2231,0.2248,0.2279,0.2257,0.2263,0.2268,0.2287,0.2372,0.2388,0.2213,0.2213,0.2213,0,0,0.2167,0.218,0.2186,0.2212,0.2226,0.2254,0.2234,0.2266,0.2284,0.2249,0.2269,0.2259,0.2244,0.226,0.2265,0.2247,0.2331,0.2271,0.2276,0.2293,0.2377,0.2394,0.2409,0.2215,0.2214,0.2214,0,0,0.2198,0.22,0.2224,0.2244,0.2275,0.2284,0.2296,0.2315,0.2318,0.2344,0.2317,0.2322,0.2324,0.2315,0.2309,0.2354,0.2366,0.2347,0.239,0.2471,0.2487,0.2501,0.2552,0.2571,0.2343,0.2343,0.2343,0,0.2205,0.223,0.224,0.2271,0.2289,0.2299,0.2329,0.2345,0.2364,0.2372,0.2358,0.2379,0.2354,0.2378,0.2379,0.2368,0.2413,0.236,0.2482,0.2497,0.251,0.2559,0.2579,0.2346,0.2346,0.2346,0.2345,0,0.2252,0.227,0.2293,0.2326,0.2351,0.2384,0.2404,0.2426,0.243,0.2439,0.2475,0.2463,0.2476,0.2459,0.2427,0.2498,0.2498,0.2486,0.2467,0.2532,0.2578,0.2598,0.235,0.2349,0.2348,0.2348,0,0,0.2271,0.2314,0.232,0.233,0.2379,0.2399,0.2444,0.2479,0.2501,0.2531,0.2574,0.2567,0.2573,0.2568,0.2542,0.2589,0.2697,0.2577,0.258,0.2633,0.2877,0.2776,0.2787,0.2721,0.2725,0.2728,0.2867,0,0.2303,0.2352,0.2371,0.2412,0.2436,0.2456,0.249,0.2523,0.2552,0.2598,0.2616,0.2648,0.2613,0.2621,0.2674,0.269,0.2755,0.266,0.2802,0.2806,0.2714,0.2809,0.2609,0.2708,0.2886,0.2889,0.2892,0,0.2339,0.2366,0.2406,0.2435,0.2447,0.2471,0.2518,0.2552,0.2619,0.2645,0.2709,0.2735,0.2802,0.277,0.2893,0.2842,0.2876,0.2891,0.2897,0.2803,0.2742,0.2674,0.2737,0.2635,0.2922,0.292,0.2917,0,0.2335,0.2384,0.2407,0.2421,0.2465,0.2478,0.2504,0.2562,0.2604,0.2689,0.275,0.2835,0.2891,0.2974,0.3007,0.2974,0.3145,0.3104,0.3054,0.3046,0.2902,0.2874,0.2887,0.3227,0.3227,0.3226,0.3226,0,0.2356,0.2373,0.2399,0.2409,0.2441,0.2468,0.2514,0.2552,0.2635,0.2702,0.2779,0.2868,0.2953,0.3052,0.3077,0.3129,0.3219,0.3093,0.3092,0.2909,0.2882,0.2805,0.2773,0.3231,0.323,0.3229,0.3228,0,0.2352,0.2368,0.2395,0.2427,0.2438,0.246,0.2528,0.2569,0.2644,0.2749,0.2793,0.2931,0.3043,0.3114,0.3229,0.3204,0.3149,0.3256,0.3014,0.2981,0.2792,0.2771,0.2725,0.2645,0.3228,0.3227,0.3225,0,0.2356,0.2365,0.2401,0.2425,0.244,0.2477,0.2512,0.2572,0.2626,0.2785,0.2844,0.2987,0.3087,0.3213,0.3167,0.3206,0.3118,0.3037,0.2925,0.2781,0.2759,0.266,0.2589,0.2758,0.2753,0.2749,0.2746,0,0.2367,0.2374,0.2401,0.2444,0.2473,0.2513,0.2562,0.2602,0.2683,0.2776,0.29,0.2997,0.3078,0.3015,0.3031,0.3018,0.2835,0.2953,0.2885,0.2468,0.2284,0.2204,0.2657,0.271,0.2714,0.2716,0.2718,0.272,0.2384,0.2401,0.2432,0.2473,0.2507,0.2536,0.2552,0.2607,0.2678,0.2759,0.2875,0.2917,0.2861,0.2841,0.281,0.2547,0.2613,0.2419,0.2433,0.2366,0.2196,0.2553,0.2547,0.2549,0.2551,0.2553,0.2555,0,0.2403,0.2424,0.2463,0.2496,0.2518,0.2538,0.2579,0.2568,0.2611,0.2653,0.2727,0.2608,0.2516,0.2417,0.2164,0.2036,0.1939,0.1966,0.1785,0.1766,0.2152,0.2034,0.1814,0.1814,0.1814,0.1814,0.1815,0.1815,0.2423,0.245,0.246,0.2492,0.2512,0.2503,0.2509,0.2487,0.2475,0.2384,0.2265,0.2249,0.2139,0.1943,0.1701,0.1645,0.152,0.1407,0.1491,0.1749,0.1791,0.1832,0.1713,0.1429,0.1429,0.0962,0.0959,0.0956]},{"header":{"parameterUnit":"m.s-1","parameterCategory":2,"la1":30.2991,"la2":30.254,"lo1":-89.0895,"lo2":-89.0444,"dy":0.0017,"dx":0.0017,"nx":28,"ny":28,"refTime":"2025-07-23T21:00:00:Z","depth":"0","parameterNumber":3,"parameterNumberName":"V-component_of_CURRENTS"},"data":[0,0,0,0,0,0,0,0,0,0,0,0,0,0,0,0,0,0,0,0,0,0,0,0,0,0,0,0,0,0,0,0,0,0,0,0,0,0,0,0,0,0,0,0,0,0,0,0,0,0,0,0,0,0,0,0,0,0,0.0273,0.0274,0,0.0287,0.0287,0.0287,0.0282,0.0282,0.0282,0.0282,0.0243,0.0242,0.0241,0,0,0,0,0,0,0,0,0,0,0,0,0,0.0224,0.0225,0.0273,0.0274,0.0274,0.0287,0.0287,0.0287,0.0282,0.0282,0.0282,0.0282,0.0244,0.0242,0.0241,0,0,0,0,0,0,0,0,0,0,0,0,0,0.024,0.0225,0.0273,0.0275,0.0275,0.0287,0.0287,0.0287,0.0282,0.0282,0.0282,0.0282,0.0244,0.0243,0.0241,0.0237,0,0,0.0237,0.0237,0,0,0,0,0,0,0,0,0.024,0.0242,0.0274,0.0275,0.0275,0.0284,0.0255,0.0268,0.0282,0.0278,0.0282,0.0282,0.0253,0.0251,0.0252,0.0235,0.0233,0.0237,0.0236,0.0236,0.0235,0,0,0,0,0,0,0,0.0238,0.0241,0.0277,0.0274,0.0275,0.0268,0.027,0.0257,0.0264,0.0278,0.0278,0.0282,0.0253,0.0254,0.0251,0.0233,0.0237,0.0236,0.0235,0.0234,0.0206,0.0206,0,0,0,0,0,0,0.0242,0.0241,0.0276,0.0277,0.0258,0.0269,0.0271,0.028,0.0265,0.0264,0.0283,0.0282,0.0256,0.0253,0.025,0.0256,0.0236,0.0234,0.0234,0.0206,0.0206,0.0206,0,0,0,0,0,0,0.0241,0.0245,0.0276,0.026,0.0264,0.027,0.028,0.028,0.0284,0.027,0.0267,0.0286,0.0256,0.0252,0.0246,0.0254,0.0234,0.0232,0.0206,0.0206,0.0206,0.026,0,0,0,0,0,0,0.0239,0.0245,0.0249,0.0261,0.0265,0.0289,0.028,0.0281,0.0287,0.0287,0.0272,0.0268,0.0256,0.0248,0.0244,0.0251,0.0231,0.0206,0.0206,0.0206,0.0258,0.0261,0.0265,0,0,0,0,0,0.0237,0.0249,0.025,0.0254,0.0272,0.0289,0.0291,0.0293,0.0288,0.0294,0.0284,0.0269,0.0246,0.0247,0.0243,0.025,0.0206,0.0206,0.0206,0.0256,0.0261,0.0265,0,0,0,0,0,0,0.0228,0.025,0.0251,0.0268,0.0279,0.0289,0.0296,0.0296,0.0293,0.0291,0.0273,0.0269,0.0265,0.0248,0.025,0.024,0.0221,0.0221,0.0261,0.0265,0.0268,0.0314,0.023,0,0,0,0,0,0.023,0.0245,0.0261,0.0274,0.0281,0.0288,0.0294,0.0297,0.0298,0.0297,0.0286,0.0271,0.0262,0.0257,0.0244,0.0241,0.0249,0.024,0.0243,0.0246,0.028,0.0297,0.0306,0.0206,0.0206,0.0206,0,0,0.0229,0.0244,0.0251,0.0273,0.0282,0.0303,0.0291,0.0305,0.0325,0.0292,0.0306,0.0283,0.0263,0.0263,0.0259,0.025,0.0275,0.0247,0.025,0.0282,0.0298,0.0309,0.0318,0.0206,0.0206,0.0206,0,0,0.0245,0.0251,0.0272,0.0286,0.0304,0.0312,0.0318,0.0329,0.0335,0.0343,0.0325,0.0317,0.0295,0.0294,0.0288,0.0302,0.0292,0.0281,0.0339,0.0355,0.0364,0.0373,0.0385,0.0394,0.0284,0.0284,0.0284,0,0.0242,0.0278,0.0279,0.0305,0.0329,0.032,0.0355,0.0358,0.0364,0.0384,0.0353,0.0356,0.0319,0.035,0.0343,0.0314,0.032,0.0326,0.0363,0.0371,0.0379,0.039,0.04,0.0286,0.0286,0.0286,0.0285,0,0.028,0.0307,0.0322,0.0357,0.0377,0.0404,0.0417,0.0432,0.043,0.0439,0.0464,0.0427,0.0442,0.0407,0.0375,0.0411,0.0396,0.0366,0.036,0.0393,0.0401,0.041,0.029,0.0289,0.0288,0.0288,0,0,0.0288,0.0341,0.0347,0.0389,0.0413,0.0445,0.0474,0.052,0.0572,0.0547,0.0623,0.0567,0.0561,0.0555,0.0515,0.0509,0.0536,0.046,0.046,0.0488,0.0576,0.051,0.0512,0.0513,0.0515,0.0516,0.0557,0,0.0325,0.0397,0.0408,0.0484,0.0531,0.0541,0.0585,0.0618,0.0638,0.07,0.0675,0.0716,0.0615,0.0635,0.0613,0.0567,0.0565,0.0529,0.0529,0.053,0.0478,0.0523,0.0522,0.0554,0.0566,0.0567,0.0568,0,0.0368,0.042,0.0499,0.059,0.0612,0.0648,0.0747,0.0785,0.0845,0.0866,0.0896,0.0889,0.0895,0.0805,0.0761,0.0743,0.0674,0.062,0.062,0.0555,0.048,0.0523,0.0569,0.0496,0.0582,0.0581,0.058,0,0.0412,0.0491,0.0568,0.0593,0.0677,0.0724,0.0772,0.0837,0.0909,0.0991,0.1062,0.1055,0.1079,0.1003,0.0871,0.0832,0.082,0.0755,0.0636,0.063,0.0632,0.0622,0.0626,0.0742,0.0741,0.0741,0.0741,0,0.0466,0.0529,0.0598,0.0643,0.0758,0.079,0.0913,0.096,0.106,0.117,0.1161,0.1254,0.1127,0.1098,0.0961,0.0832,0.0893,0.0676,0.0647,0.0645,0.0636,0.0571,0.0528,0.0743,0.0742,0.0742,0.0742,0,0.0515,0.0547,0.065,0.0746,0.0782,0.0871,0.1005,0.1097,0.1174,0.1329,0.1373,0.1416,0.1373,0.1233,0.1112,0.0951,0.0782,0.0769,0.0768,0.0737,0.0528,0.0488,0.0474,0.0426,0.0663,0.0662,0.0661,0,0.0552,0.0607,0.0727,0.0797,0.0844,0.0967,0.1054,0.1148,0.1251,0.1432,0.1519,0.1544,0.1583,0.1386,0.1108,0.0889,0.0779,0.0721,0.0631,0.0544,0.0479,0.0446,0.0404,0.0656,0.0655,0.0654,0.0654,0,0.0639,0.0671,0.0755,0.0883,0.0983,0.1104,0.1231,0.1327,0.1452,0.1599,0.1766,0.1828,0.165,0.1435,0.1102,0.0931,0.067,0.0693,0.0625,0.0502,0.0451,0.0381,0.0596,0.0646,0.0647,0.0648,0.0648,0.0648,0.0702,0.077,0.0862,0.0983,0.1096,0.1212,0.1307,0.1456,0.1633,0.1846,0.1909,0.2013,0.1706,0.1263,0.1039,0.0602,0.0607,0.0471,0.044,0.0423,0.0346,0.0531,0.052,0.052,0.052,0.052,0.052,0,0.0768,0.0832,0.0954,0.108,0.1185,0.1232,0.1406,0.1511,0.171,0.1918,0.2078,0.1955,0.1626,0.1231,0.0651,0.0405,0.0315,0.0285,0.0267,0.024,0.0438,0.0404,0.0342,0.0342,0.0342,0.0342,0.0342,0.0342,0.0809,0.0902,0.0948,0.1111,0.1196,0.1327,0.1412,0.1599,0.1764,0.1987,0.2031,0.2046,0.172,0.0911,0.0383,0.026,0.012,0.0077,0.0009,0.0166,0.0182,0.0197,0.0156,0.0044,0.0043,-0.0165,-0.0167,-0.0168]}],[{"header":{"parameterUnit":"m.s-1","parameterCategory":2,"la1":30.2991,"la2":30.254,"lo1":-89.0895,"lo2":-89.0444,"dy":0.0017,"dx":0.0017,"nx":28,"ny":28,"refTime":"2025-07-23T21:00:00:Z","depth":"2","parameterNumber":2,"parameterNumberName":"U-component_of_CURRENTS"},"data":[0,0,0,0,0,0,0,0,0,0,0,0,0,0,0,0,0,0,0,0,0,0,0,0,0,0,0,0,0,0,0,0,0,0,0,0,0,0,0,0,0,0,0,0,0,0,0,0,0,0,0,0,0,0,0,0,0,0,0.1875,0.1875,0,0.1892,0.1893,0.1893,0.1892,0.1892,0.1892,0.1892,0.1907,0.1908,0.1908,0,0,0,0,0,0,0,0,0,0,0,0,0,0.1866,0.1865,0.1875,0.1875,0.1876,0.1892,0.1893,0.1893,0.1892,0.1892,0.1892,0.1892,0.1907,0.1907,0.1908,0,0,0,0,0,0,0,0,0,0,0,0,0,0.1873,0.1865,0.1875,0.1878,0.1879,0.1892,0.1893,0.1893,0.1892,0.1892,0.1892,0.1892,0.1907,0.1907,0.1908,0.1916,0,0,0.191,0.1911,0,0,0,0,0,0,0,0,0.1873,0.1873,0.1878,0.1878,0.1879,0.1891,0.1895,0.1901,0.1892,0.1885,0.1892,0.1892,0.1903,0.1904,0.1905,0.1916,0.1917,0.191,0.1911,0.1911,0.1911,0,0,0,0,0,0,0,0.1872,0.1873,0.188,0.1878,0.1879,0.1888,0.1888,0.1896,0.1893,0.1886,0.1886,0.1891,0.1903,0.1904,0.1906,0.1917,0.191,0.1911,0.1912,0.1912,0.1977,0.1978,0,0,0,0,0,0,0.1872,0.1872,0.188,0.1881,0.1877,0.1888,0.1889,0.1886,0.1893,0.1895,0.1891,0.1891,0.1903,0.1905,0.1906,0.1957,0.1911,0.1912,0.1912,0.1975,0.1977,0.1978,0,0,0,0,0,0,0.1872,0.1872,0.1879,0.1879,0.188,0.1889,0.1886,0.1887,0.1896,0.1898,0.1899,0.19,0.1903,0.1905,0.1929,0.1956,0.1912,0.1913,0.1974,0.1976,0.1978,0.2032,0,0,0,0,0,0,0.1871,0.1872,0.1879,0.1878,0.188,0.1897,0.1886,0.1887,0.1899,0.1899,0.1906,0.1906,0.1903,0.1929,0.193,0.1956,0.1914,0.1972,0.1975,0.1977,0.2029,0.2036,0.2042,0,0,0,0,0,0.1871,0.1878,0.1878,0.188,0.1886,0.1898,0.19,0.1905,0.19,0.191,0.1918,0.1906,0.1945,0.193,0.1932,0.1959,0.1971,0.1974,0.1977,0.2026,0.2034,0.2041,0,0,0,0,0,0,0.1876,0.1878,0.1879,0.1886,0.1897,0.1899,0.1911,0.1911,0.1924,0.193,0.1922,0.1925,0.1958,0.195,0.1934,0.1985,0.1956,0.196,0.1993,0.2001,0.2007,0.2007,0.1914,0,0,0,0,0,0.1881,0.1886,0.1892,0.1899,0.1906,0.191,0.1918,0.1924,0.1933,0.1939,0.1946,0.1956,0.197,0.1978,0.1991,0.2016,0.2027,0.2035,0.2041,0.2047,0.2048,0.2117,0.213,0.1988,0.1988,0.1988,0,0,0.1887,0.1888,0.1892,0.1902,0.1908,0.1926,0.1914,0.1935,0.1956,0.1939,0.1976,0.1982,0.1982,0.2016,0.2029,0.2013,0.2089,0.205,0.2055,0.2054,0.2121,0.2135,0.2148,0.199,0.1989,0.1989,0,0,0.1903,0.1901,0.1915,0.1924,0.1943,0.1948,0.1956,0.1972,0.1989,0.202,0.2018,0.2039,0.2059,0.2068,0.2071,0.2119,0.2124,0.2127,0.2158,0.2225,0.2237,0.2248,0.2265,0.2277,0.2128,0.2128,0.2128,0,0.1917,0.1922,0.1924,0.1939,0.1953,0.1958,0.1983,0.1999,0.2026,0.2046,0.2041,0.2087,0.2082,0.212,0.2134,0.2134,0.2162,0.2128,0.2235,0.2246,0.2256,0.227,0.2283,0.2131,0.213,0.213,0.213,0,0.1933,0.1948,0.1956,0.1975,0.1996,0.2015,0.2039,0.2067,0.2084,0.2099,0.2151,0.2158,0.2183,0.2187,0.2171,0.2242,0.2234,0.2239,0.2216,0.2274,0.2285,0.2297,0.2135,0.2134,0.2133,0.2132,0,0,0.1945,0.1965,0.197,0.1984,0.2016,0.2031,0.208,0.2119,0.2143,0.2183,0.223,0.2249,0.2258,0.2263,0.2261,0.2305,0.2386,0.2305,0.2307,0.2321,0.2516,0.2422,0.2426,0.2429,0.2432,0.2434,0.2487,0,0.1961,0.1986,0.2002,0.2039,0.2057,0.2084,0.2117,0.2159,0.2194,0.2241,0.2271,0.2313,0.2288,0.231,0.2354,0.2388,0.2425,0.2369,0.2456,0.2457,0.2369,0.244,0.2222,0.2245,0.2499,0.2501,0.2503,0,0.1974,0.1988,0.2024,0.2062,0.2073,0.21,0.2157,0.2191,0.2256,0.2287,0.2345,0.2376,0.2442,0.2419,0.2512,0.2488,0.2504,0.252,0.2523,0.2425,0.2388,0.2232,0.2258,0.2523,0.2522,0.252,0.2519,0,0.1966,0.2007,0.2033,0.2044,0.2086,0.2119,0.2148,0.2208,0.2249,0.2333,0.2381,0.2456,0.251,0.2569,0.26,0.2579,0.2699,0.2674,0.2596,0.2588,0.2411,0.2382,0.2744,0.2744,0.2744,0.2744,0.2744,0,0.1964,0.1987,0.2028,0.2034,0.2069,0.2114,0.2166,0.2199,0.2281,0.2333,0.2408,0.2469,0.2561,0.2638,0.2649,0.2663,0.2746,0.2611,0.2611,0.2419,0.2392,0.2638,0.2625,0.2746,0.2745,0.2745,0.2745,0,0.1952,0.1971,0.2005,0.2051,0.2065,0.2095,0.2172,0.2203,0.2283,0.2369,0.2411,0.252,0.2599,0.2666,0.2752,0.2713,0.274,0.272,0.2462,0.2429,0.2562,0.2551,0.2633,0.2631,0.2629,0.2627,0.2625,0,0.1944,0.1959,0.2007,0.2016,0.2038,0.2087,0.2111,0.2193,0.2231,0.2383,0.2413,0.2541,0.2578,0.2658,0.2633,0.2636,0.2707,0.2423,0.2329,0.2567,0.2559,0.2551,0.2544,0.2109,0.2103,0.2099,0.2095,0,0.1935,0.1958,0.1975,0.1978,0.2005,0.2048,0.2093,0.2112,0.2213,0.2287,0.2366,0.2424,0.2496,0.2392,0.2403,0.2373,0.2403,0.2326,0.2687,0.2165,0.2076,0.2066,0.2076,0.2054,0.2058,0.2061,0.2063,0.2065,0.1929,0.1933,0.1934,0.1936,0.1967,0.1976,0.1966,0.2016,0.2055,0.2103,0.2219,0.2226,0.2234,0.2124,0.2054,0.2004,0.2166,0.2052,0.2066,0.2084,0.2009,0.192,0.1852,0.1855,0.1858,0.186,0.1862,0,0.1907,0.1886,0.188,0.1871,0.1866,0.1919,0.1922,0.1881,0.1872,0.1942,0.1981,0.1799,0.1722,0.1753,0.1603,0.1576,0.1556,0.1508,0.1463,0.1506,0.1543,0.1439,0.1132,0.113,0.1127,0.1125,0,0,0.1884,0.1844,0.1824,0.1758,0.1772,0.1731,0.1716,0.1665,0.1663,0.1589,0.1576,0.1683,0.1728,0.1426,0.1359,0.123,0.1366,0.1176,0.1765,0.176,0.1794,0.1861,0.1749,0,0,0,0,0]},{"header":{"parameterUnit":"m.s-1","parameterCategory":2,"la1":30.2991,"la2":30.254,"lo1":-89.0895,"lo2":-89.0444,"dy":0.0017,"dx":0.0017,"nx":28,"ny":28,"refTime":"2025-07-23T21:00:00:Z","depth":"2","parameterNumber":3,"parameterNumberName":"V-component_of_CURRENTS"},"data":[0,0,0,0,0,0,0,0,0,0,0,0,0,0,0,0,0,0,0,0,0,0,0,0,0,0,0,0,0,0,0,0,0,0,0,0,0,0,0,0,0,0,0,0,0,0,0,0,0,0,0,0,0,0,0,0,0,0,0.0124,0.0124,0,0.0131,0.0131,0.0131,0.0123,0.0123,0.0123,0.0123,0.0091,0.009,0.0089,0,0,0,0,0,0,0,0,0,0,0,0,0,0.0083,0.0084,0.0124,0.0124,0.0124,0.0131,0.0131,0.0131,0.0124,0.0123,0.0123,0.0123,0.0091,0.009,0.0089,0,0,0,0,0,0,0,0,0,0,0,0,0,0.0095,0.0084,0.0124,0.0122,0.0122,0.0131,0.0131,0.0131,0.0124,0.0123,0.0123,0.0123,0.0091,0.009,0.0089,0.0089,0,0,0.0086,0.0085,0,0,0,0,0,0,0,0,0.0095,0.0097,0.0122,0.0122,0.0122,0.0127,0.0105,0.0115,0.0124,0.0122,0.0123,0.0123,0.01,0.0098,0.0099,0.0087,0.0086,0.0086,0.0085,0.0085,0.0084,0,0,0,0,0,0,0,0.0094,0.0096,0.0125,0.0122,0.0122,0.0114,0.0116,0.0107,0.0111,0.0122,0.0122,0.0124,0.01,0.01,0.0098,0.0085,0.0086,0.0085,0.0084,0.0084,0.0073,0.0073,0,0,0,0,0,0,0.0097,0.0096,0.0125,0.0126,0.0109,0.0115,0.0117,0.0125,0.0112,0.011,0.0125,0.0124,0.0102,0.01,0.0097,0.0109,0.0085,0.0084,0.0083,0.0073,0.0073,0.0073,0,0,0,0,0,0,0.0096,0.01,0.0125,0.0111,0.0114,0.0117,0.0125,0.0125,0.0127,0.0115,0.0112,0.0127,0.0102,0.0099,0.0096,0.0107,0.0083,0.0082,0.0072,0.0073,0.0073,0.0123,0,0,0,0,0,0,0.0095,0.0099,0.0105,0.0112,0.0115,0.0137,0.0126,0.0126,0.013,0.0129,0.0116,0.0112,0.0101,0.0098,0.0095,0.0105,0.0082,0.0072,0.0072,0.0073,0.0121,0.0125,0.0129,0,0,0,0,0,0.0094,0.0105,0.0105,0.0109,0.0123,0.0138,0.0139,0.0138,0.013,0.0137,0.0128,0.0113,0.0099,0.0098,0.0094,0.0104,0.0071,0.0072,0.0073,0.0119,0.0124,0.0129,0,0,0,0,0,0,0.0088,0.0106,0.0106,0.0122,0.0131,0.0137,0.0143,0.014,0.0139,0.0136,0.0119,0.0116,0.0117,0.0102,0.0101,0.0101,0.0082,0.0082,0.0118,0.0123,0.0127,0.0142,0.0081,0,0,0,0,0,0.0091,0.0105,0.0118,0.0129,0.0136,0.0139,0.0143,0.0144,0.0144,0.0143,0.0134,0.0123,0.0117,0.0114,0.0105,0.0107,0.0091,0.0109,0.0113,0.0117,0.0127,0.0117,0.0121,0.0076,0.0076,0.0076,0,0,0.0091,0.0103,0.011,0.0129,0.0135,0.0155,0.014,0.0152,0.0168,0.0139,0.0153,0.0136,0.012,0.0125,0.0123,0.0114,0.0118,0.0118,0.0121,0.0129,0.0118,0.0123,0.0127,0.0076,0.0076,0.0076,0,0,0.0107,0.0112,0.0132,0.0144,0.0159,0.0165,0.017,0.0178,0.0181,0.0191,0.0174,0.0167,0.0157,0.0152,0.0147,0.0166,0.0138,0.0157,0.0193,0.0183,0.0187,0.019,0.0164,0.0165,0.0161,0.0161,0.0161,0,0.0106,0.0137,0.0139,0.0163,0.018,0.0173,0.0202,0.0205,0.021,0.0217,0.0201,0.0192,0.0173,0.0186,0.019,0.0176,0.016,0.0178,0.0189,0.0192,0.0195,0.0167,0.0167,0.0164,0.0163,0.0163,0.0163,0,0.0142,0.0165,0.0178,0.021,0.0226,0.0247,0.0259,0.0269,0.0266,0.0266,0.0272,0.0249,0.0247,0.0234,0.0218,0.0229,0.0207,0.0195,0.018,0.0202,0.0172,0.0171,0.0167,0.0166,0.0166,0.0165,0,0,0.0148,0.0195,0.02,0.023,0.0255,0.0277,0.0302,0.0329,0.0351,0.0337,0.0367,0.034,0.0322,0.0315,0.0291,0.0278,0.0271,0.0247,0.0245,0.0227,0.0238,0.0217,0.0213,0.0262,0.0262,0.0262,0.0206,0,0.0177,0.0235,0.0251,0.0308,0.0342,0.035,0.038,0.0397,0.0401,0.0424,0.0396,0.0412,0.0355,0.0364,0.0337,0.03,0.0273,0.0286,0.0215,0.0213,0.0196,0.0214,0.0244,0.0196,0.0205,0.0204,0.0204,0,0.0214,0.025,0.0312,0.0373,0.0389,0.0421,0.0473,0.05,0.0516,0.0519,0.0516,0.05,0.0489,0.0439,0.0369,0.0381,0.0312,0.0267,0.0264,0.023,0.0191,0.0177,0.0194,0.0202,0.0203,0.0203,0.0203,0,0.0233,0.0298,0.0352,0.0372,0.0432,0.0465,0.0499,0.0527,0.0567,0.0592,0.062,0.0586,0.0593,0.051,0.0412,0.0395,0.0328,0.0294,0.0202,0.0198,0.0204,0.0201,0.0235,0.0235,0.0235,0.0235,0.0236,0,0.0267,0.0311,0.0368,0.0399,0.047,0.0502,0.0574,0.0597,0.0649,0.0709,0.0676,0.0714,0.0613,0.0564,0.0449,0.033,0.0353,0.0214,0.019,0.0219,0.0219,0.021,0.0208,0.0233,0.0234,0.0234,0.0234,0,0.0284,0.0318,0.0388,0.0458,0.0483,0.0538,0.0633,0.0684,0.0725,0.0808,0.0831,0.0821,0.0761,0.064,0.0515,0.0391,0.0275,0.0219,0.0254,0.0235,0.0135,0.0136,0.0111,0.011,0.0109,0.0109,0.0108,0,0.03,0.0335,0.0425,0.0466,0.0502,0.0585,0.0641,0.0713,0.0775,0.0875,0.0918,0.0904,0.0892,0.0694,0.0502,0.0307,0.0272,0.0184,0.0154,0.0147,0.0126,0.0128,0.013,0.0172,0.0172,0.0172,0.0172,0,0.0327,0.0357,0.0412,0.0487,0.0557,0.065,0.0741,0.0806,0.0904,0.0989,0.1074,0.1085,0.0919,0.0748,0.0487,0.0348,0.0221,0.0175,0.0179,0.0199,0.02,0.018,0.0181,0.0171,0.0171,0.0171,0.0171,0.0171,0.0343,0.0382,0.044,0.0516,0.0597,0.0701,0.0793,0.0903,0.1032,0.1172,0.1161,0.1187,0.0983,0.0663,0.044,0.0211,0.0212,0.0116,0.0118,0.012,0.0138,0.0137,0.0099,0.0098,0.0098,0.0098,0.0098,0,0.0358,0.0396,0.046,0.056,0.0649,0.0693,0.0849,0.0964,0.1134,0.1232,0.131,0.1114,0.0926,0.0698,0.037,0.0151,0.0135,0.0074,0.0113,0.0116,0.0118,0.0137,0.0096,0.0096,0.0095,0.0094,0,0,0.0364,0.0414,0.0446,0.0576,0.0655,0.08,0.0902,0.1093,0.1212,0.1313,0.1332,0.1291,0.1014,0.076,0.0482,0.0305,0.0254,0.0256,0.0283,0.0366,0.037,0.0169,0.0205,0,0,0,0,0]}],[{"header":{"parameterUnit":"m.s-1","parameterCategory":2,"la1":30.2991,"la2":30.254,"lo1":-89.0895,"lo2":-89.0444,"dy":0.0017,"dx":0.0017,"nx":28,"ny":28,"refTime":"2025-07-23T21:00:00:Z","depth":"4","parameterNumber":2,"parameterNumberName":"U-component_of_CURRENTS"},"data":[0,0,0,0,0,0,0,0,0,0,0,0,0,0,0,0,0,0,0,0,0,0,0,0,0,0,0,0,0,0,0,0,0,0,0,0,0,0,0,0,0,0,0,0,0,0,0,0,0,0,0,0,0,0,0,0,0,0,0.1006,0.1007,0,0.1024,0.1025,0.1025,0.1061,0.1062,0.1062,0.1063,0.1137,0.1138,0.1139,0,0,0,0,0,0,0,0,0,0,0,0,0,0.1032,0.1031,0.1006,0.1007,0.1007,0.1024,0.1025,0.1025,0.1061,0.1062,0.1063,0.1063,0.1136,0.1138,0.1139,0,0,0,0,0,0,0,0,0,0,0,0,0,0.1033,0.1031,0.1006,0.1027,0.1028,0.1024,0.1025,0.1025,0.1061,0.1062,0.1063,0.1064,0.1136,0.1138,0.114,0.1132,0,0,0.1146,0.1147,0,0,0,0,0,0,0,0,0.1033,0.1032,0.1023,0.1025,0.1027,0.1041,0.1061,0.1063,0.1061,0.1049,0.1063,0.1064,0.1109,0.1113,0.1114,0.1135,0.1138,0.1146,0.1147,0.1148,0.1149,0,0,0,0,0,0,0,0.1033,0.1032,0.1014,0.1023,0.1026,0.1044,0.1045,0.1061,0.1075,0.105,0.1053,0.1054,0.1111,0.1112,0.1116,0.1139,0.1146,0.1148,0.1149,0.115,0.1258,0.1259,0,0,0,0,0,0,0.1026,0.1031,0.1013,0.1015,0.1032,0.1043,0.1044,0.1036,0.1073,0.1079,0.1053,0.1055,0.1108,0.1114,0.1119,0.1197,0.1148,0.115,0.1151,0.1256,0.1258,0.126,0,0,0,0,0,0,0.1027,0.1024,0.1013,0.1024,0.1023,0.1041,0.1032,0.1036,0.1062,0.1074,0.1082,0.1078,0.1109,0.1116,0.1157,0.1197,0.1151,0.1153,0.1254,0.1257,0.1259,0.1298,0,0,0,0,0,0,0.1027,0.1024,0.1032,0.1023,0.1023,0.1022,0.1031,0.1035,0.1059,0.1063,0.1098,0.1104,0.1111,0.1155,0.1159,0.1199,0.1154,0.1252,0.1255,0.1258,0.1295,0.1302,0.1307,0,0,0,0,0,0.1028,0.1023,0.1032,0.1031,0.1027,0.1022,0.1024,0.1041,0.106,0.1069,0.1101,0.1104,0.1179,0.1157,0.1163,0.1203,0.125,0.1254,0.1258,0.1292,0.13,0.1307,0,0,0,0,0,0,0.104,0.1025,0.1036,0.1028,0.1034,0.1028,0.1042,0.1053,0.1083,0.1102,0.1116,0.1125,0.1179,0.1184,0.116,0.1245,0.1219,0.1224,0.1243,0.1251,0.1257,0.1265,0.1156,0,0,0,0,0,0.1044,0.1038,0.1033,0.1032,0.1036,0.1046,0.1054,0.1065,0.1082,0.1097,0.1121,0.1157,0.1193,0.1216,0.1241,0.128,0.1284,0.1314,0.1321,0.1326,0.1338,0.1376,0.1386,0.1272,0.1272,0.1272,0,0,0.1049,0.1041,0.104,0.1035,0.1044,0.1052,0.1054,0.107,0.1093,0.1101,0.1151,0.1178,0.1209,0.1258,0.1283,0.127,0.1358,0.1331,0.1335,0.1344,0.1381,0.1392,0.1401,0.1275,0.1274,0.1274,0,0,0.1049,0.1051,0.1049,0.1055,0.1068,0.1072,0.1082,0.1094,0.1121,0.1157,0.1184,0.1236,0.1274,0.1313,0.1336,0.1393,0.1389,0.1406,0.1447,0.1484,0.1494,0.1502,0.1505,0.1514,0.1411,0.1411,0.1411,0,0.1064,0.1053,0.1051,0.1056,0.107,0.1084,0.11,0.1121,0.115,0.1184,0.1181,0.1278,0.1303,0.1382,0.1407,0.141,0.1416,0.1412,0.1492,0.15,0.1508,0.151,0.1519,0.1413,0.1413,0.1413,0.1413,0,0.1057,0.1065,0.1066,0.1078,0.1094,0.1107,0.1133,0.1167,0.12,0.1226,0.1309,0.1343,0.1405,0.1425,0.1435,0.1518,0.1498,0.1492,0.1468,0.1522,0.152,0.1528,0.1417,0.1416,0.1415,0.1415,0,0,0.1048,0.106,0.1065,0.1083,0.1111,0.1121,0.1173,0.1221,0.1269,0.1312,0.1375,0.1452,0.1482,0.1511,0.1538,0.1575,0.1633,0.1563,0.1564,0.1559,0.1694,0.1574,0.1571,0.164,0.1642,0.1644,0.1664,0,0.1052,0.1063,0.1074,0.1107,0.112,0.1161,0.1204,0.126,0.1309,0.1369,0.1434,0.1501,0.1511,0.1553,0.1595,0.163,0.166,0.1627,0.1649,0.165,0.1531,0.1579,0.1651,0.167,0.1672,0.1673,0.1674,0,0.1042,0.1052,0.1084,0.1128,0.1142,0.1173,0.1259,0.1302,0.1392,0.1435,0.1516,0.1556,0.1646,0.1629,0.1717,0.1695,0.1705,0.1715,0.1715,0.1599,0.1547,0.161,0.1689,0.1688,0.1687,0.1686,0.1685,0,0.1029,0.106,0.1091,0.1105,0.1158,0.1203,0.1245,0.1334,0.1383,0.149,0.1533,0.1629,0.1685,0.1725,0.1761,0.1747,0.1823,0.1801,0.1698,0.1688,0.1771,0.1762,0.1854,0.1854,0.1854,0.1854,0.1853,0,0.1014,0.1039,0.1092,0.1107,0.1157,0.1209,0.1282,0.1339,0.1428,0.1481,0.1575,0.1619,0.1715,0.1765,0.1779,0.1763,0.1842,0.1713,0.1695,0.1784,0.1777,0.1775,0.1766,0.1854,0.1854,0.1854,0.1854,0,0.0986,0.1023,0.1058,0.1124,0.115,0.1194,0.1282,0.1322,0.1425,0.1494,0.1532,0.1638,0.1702,0.1766,0.1829,0.1775,0.1777,0.175,0.1835,0.1819,0.1607,0.16,0.1627,0.1623,0.1619,0.1617,0.1614,0,0.0968,0.0984,0.1058,0.1075,0.1107,0.1175,0.1208,0.1313,0.1346,0.1482,0.1492,0.1604,0.166,0.1652,0.1726,0.1739,0.1722,0.1695,0.1659,0.1609,0.1589,0.1587,0.1584,0.1609,0.1608,0.1608,0.1607,0,0.0929,0.0969,0.0995,0.1016,0.1057,0.1085,0.114,0.1167,0.1279,0.1391,0.1426,0.1465,0.1529,0.1575,0.1607,0.1611,0.1697,0.166,0.1666,0.1632,0.1589,0.1571,0.1572,0.1595,0.1597,0.1598,0.1599,0,0.0903,0.0903,0.0928,0.0937,0.0969,0.0955,0.1016,0.1049,0.1107,0.1267,0.1274,0.1394,0.1506,0.1508,0.1531,0.1536,0.1508,0.1439,0.1457,0.147,0.1411,0.1333,0.1252,0,0,0,0,0,0.0864,0.0834,0.083,0.0814,0.0829,0.084,0.0932,0.0998,0.1133,0.1121,0.1196,0.1251,0.1301,0.136,0.1336,0.1452,0.1506,0.1413,0.1433,0.1532,0.1546,0.1492,0,0,0,0,0,0,0.083,0.0828,0.0795,0.0692,0.0652,0.0649,0.0711,0.0809,0.082,0.0977,0.1023,0.1133,0.1214,0.1289,0.1292,0.1311,0.1289,0.1495,0.149,0.1525,0.1537,0.1547,0.1497,0,0,0,0,0]},{"header":{"parameterUnit":"m.s-1","parameterCategory":2,"la1":30.2991,"la2":30.254,"lo1":-89.0895,"lo2":-89.0444,"dy":0.0017,"dx":0.0017,"nx":28,"ny":28,"refTime":"2025-07-23T21:00:00:Z","depth":"4","parameterNumber":3,"parameterNumberName":"V-component_of_CURRENTS"},"data":[0,0,0,0,0,0,0,0,0,0,0,0,0,0,0,0,0,0,0,0,0,0,0,0,0,0,0,0,0,0,0,0,0,0,0,0,0,0,0,0,0,0,0,0,0,0,0,0,0,0,0,0,0,0,0,0,0,0,0.0103,0.0103,0,0.0113,0.0113,0.0113,0.0101,0.01,0.01,0.01,0.0073,0.0072,0.0072,0,0,0,0,0,0,0,0,0,0,0,0,0,0.0065,0.0065,0.0103,0.0103,0.0103,0.0113,0.0113,0.0113,0.0101,0.01,0.01,0.01,0.0073,0.0072,0.0072,0,0,0,0,0,0,0,0,0,0,0,0,0,0.0078,0.0066,0.0103,0.0099,0.0099,0.0113,0.0113,0.0113,0.0101,0.01,0.01,0.0099,0.0073,0.0072,0.0072,0.008,0,0,0.007,0.007,0,0,0,0,0,0,0,0,0.0077,0.0079,0.0099,0.0099,0.0099,0.0105,0.0089,0.01,0.0101,0.01,0.01,0.0099,0.0081,0.008,0.0083,0.0079,0.0078,0.007,0.007,0.007,0.007,0,0,0,0,0,0,0,0.0076,0.0079,0.0106,0.01,0.0099,0.0093,0.0095,0.0091,0.0092,0.01,0.0099,0.0101,0.008,0.0083,0.0082,0.0078,0.007,0.007,0.0069,0.0069,0.0077,0.0077,0,0,0,0,0,0,0.0078,0.0078,0.0106,0.0107,0.0087,0.0094,0.0096,0.0103,0.0093,0.0092,0.0102,0.01,0.0084,0.0083,0.0081,0.0092,0.007,0.0069,0.0069,0.0076,0.0077,0.0077,0,0,0,0,0,0,0.0077,0.008,0.0106,0.0092,0.0095,0.0096,0.0104,0.0104,0.0107,0.0095,0.0092,0.0105,0.0084,0.0082,0.0084,0.0091,0.0069,0.0068,0.0075,0.0076,0.0077,0.0113,0,0,0,0,0,0,0.0076,0.008,0.0086,0.0093,0.0096,0.012,0.0105,0.0105,0.0109,0.0108,0.0097,0.0094,0.0083,0.0085,0.0084,0.009,0.0068,0.0075,0.0076,0.0077,0.0111,0.0115,0.0118,0,0,0,0,0,0.0074,0.0088,0.0086,0.0089,0.0104,0.0121,0.0122,0.012,0.011,0.0118,0.011,0.0094,0.009,0.0085,0.0083,0.0089,0.0074,0.0075,0.0077,0.011,0.0114,0.0118,0,0,0,0,0,0,0.0073,0.0088,0.0086,0.0103,0.0113,0.0119,0.0126,0.0123,0.0124,0.012,0.0104,0.0101,0.0105,0.0094,0.009,0.0094,0.0078,0.0079,0.0104,0.0108,0.0112,0.0104,0.0068,0,0,0,0,0,0.0076,0.0091,0.0101,0.0115,0.0121,0.0123,0.0128,0.0128,0.013,0.013,0.0123,0.0114,0.011,0.0106,0.0102,0.0107,0.0079,0.0109,0.0112,0.0115,0.0108,0.0074,0.0073,0.0081,0.0081,0.0081,0,0,0.0078,0.0089,0.0096,0.0115,0.0121,0.0139,0.0125,0.0138,0.0149,0.0127,0.0138,0.0128,0.0114,0.012,0.012,0.0111,0.01,0.0117,0.0119,0.011,0.0075,0.0074,0.0073,0.0082,0.0082,0.0081,0,0,0.0094,0.0101,0.012,0.0132,0.0147,0.0151,0.0156,0.0166,0.0166,0.0178,0.0161,0.0154,0.0155,0.0142,0.0136,0.0155,0.0121,0.0157,0.0167,0.0134,0.0133,0.0131,0.01,0.0096,0.0157,0.0157,0.0157,0,0.0094,0.012,0.0127,0.015,0.0159,0.0158,0.0178,0.0184,0.0192,0.0187,0.0186,0.0171,0.0163,0.0153,0.0163,0.0161,0.0138,0.0153,0.0138,0.0135,0.0133,0.0102,0.0096,0.0159,0.0159,0.0159,0.0159,0,0.0128,0.0146,0.0159,0.0186,0.0199,0.0217,0.0225,0.0231,0.0229,0.0225,0.0218,0.0206,0.0191,0.0192,0.0185,0.0168,0.0155,0.0147,0.0125,0.0134,0.0101,0.0095,0.0162,0.0161,0.0161,0.016,0,0,0.0131,0.0173,0.0178,0.0191,0.0218,0.023,0.0248,0.0255,0.0253,0.0254,0.0245,0.0239,0.022,0.0211,0.0197,0.0172,0.0143,0.0157,0.0154,0.0123,0.007,0.0086,0.008,0.0132,0.0131,0.013,0.0055,0,0.0152,0.0195,0.0212,0.0246,0.0264,0.0269,0.0284,0.0287,0.0283,0.0275,0.0249,0.0243,0.0232,0.0226,0.0197,0.016,0.0127,0.0164,0.0067,0.0064,0.0075,0.0073,0.0127,0.005,0.0048,0.0047,0.0046,0,0.018,0.0202,0.0241,0.0267,0.0275,0.0295,0.0302,0.0317,0.0304,0.0298,0.0277,0.0257,0.0227,0.0216,0.014,0.0166,0.0118,0.0083,0.0079,0.0074,0.0068,0.0037,0.0034,0.0035,0.0036,0.0037,0.0037,0,0.0175,0.0219,0.0247,0.026,0.0293,0.0303,0.0319,0.0319,0.0332,0.0312,0.0311,0.0263,0.0253,0.0182,0.0125,0.0128,0.0035,0.0028,-0.001,-0.001,-0.0019,-0.0017,-0.0043,-0.0043,-0.0043,-0.0042,-0.0042,0,0.0187,0.0207,0.0248,0.0262,0.0287,0.031,0.0331,0.0335,0.0345,0.0362,0.0325,0.0322,0.0245,0.019,0.0119,0.0042,0.0027,-0.0015,-0.003,0.0,0.0005,-0.0024,-0.002,-0.0045,-0.0045,-0.0044,-0.0044,0,0.0176,0.0207,0.0237,0.0274,0.0289,0.0307,0.0356,0.0374,0.038,0.0399,0.04,0.0366,0.0307,0.0219,0.0111,0.0051,-0.0036,-0.0066,-0.0025,-0.0036,-0.0062,-0.0056,-0.0123,-0.0123,-0.0123,-0.0123,-0.0123,0,0.0173,0.0191,0.024,0.0266,0.0286,0.0323,0.0356,0.0387,0.042,0.0431,0.0447,0.0398,0.0364,0.0226,0.0127,-0.0017,-0.0035,-0.0095,-0.0084,-0.0064,-0.0072,-0.0065,-0.0059,-0.0123,-0.0123,-0.0123,-0.0123,0,0.0161,0.0183,0.021,0.0265,0.0308,0.036,0.0414,0.0442,0.0487,0.0481,0.0491,0.0422,0.0354,0.0246,0.0138,0.0033,-0.0064,-0.0096,-0.0097,-0.0087,-0.0065,-0.0072,-0.0065,-0.0123,-0.0123,-0.0123,-0.0123,0,0.0151,0.0169,0.0218,0.0267,0.0329,0.0404,0.0423,0.0479,0.0515,0.0535,0.0534,0.0456,0.0412,0.0272,0.017,0.0074,0.0045,-0.0002,-0.0008,-0.0009,0.005,0.0097,0.007,0,0,0,0,0,0.0144,0.0178,0.0221,0.0296,0.0362,0.041,0.0475,0.0498,0.0535,0.0551,0.0551,0.0491,0.0357,0.0297,0.0206,0.0156,0.0018,0.0043,-0.0042,-0.0125,-0.0125,-0.0072,0,0,0,0,0,0,0.0145,0.0185,0.0221,0.0323,0.0383,0.047,0.052,0.054,0.0557,0.0564,0.0502,0.0459,0.0335,0.0418,0.0204,0.0173,0.0103,-0.0021,-0.0024,-0.0125,-0.0125,-0.0124,-0.007,0,0,0,0,0]}]]